Location: *
(43.7000°S, 168.7000°W)
Time: 11:06:00
(UTC+00:00)

Cosmos 2227 Rocket - Pass Details

Date: 07 July 2020
Orbit: 839 x 845 km, 71.0° (Epoch: 09 August)

Event Time Altitude Azimuth Distance (km) Brightness Sun altitude
Exits shadow 17:14:08 17° 215° (SW) 2,022 3.7 -16.3°
Maximum altitude 17:18:27 59° 289° (WNW) 983 2.3 -15.6°
Drops below altitude 10° 17:24:00 10° 7° (N) 2,463 4.9 -14.6°
Sets 17:26:27 0° 11° (N) 3,391 5.7 -14.2°
